Weather History for Whiteman AFB, MO

Change the Weather History Date:

Saturday, October 27, 2012

  Actual Average Record
Temperature  
Mean Temperature 36 °F -  
Max Temperature 45 °F 61 °F 82 °F (1999)
Min Temperature 26 °F 44 °F 26 °F (2012)
Degree Days  
Heating Degree Days 30    
Moisture  
Dew Point 27 °F    
Average Humidity 74    
Maximum Humidity 95    
Minimum Humidity 50    
Precipitation  
Precipitation 0.00 in - - ()
Sea Level Pressure  
Sea Level Pressure 30.35 in    
Wind  
Wind Speed 7 mph (NNE)    
Max Wind Speed 10 mph    
Max Gust Speed 20 mph    
Visibility 10 miles    
Events      
Averages and records for this station are not official NWS values.
T = Trace of Precipitation, MM = Missing Value Source: NWS Daily Summary

Daily Weather History Graph

Daily Weather History Graph

Search for Another Location

Airport:

Trip Planner

Search our weather history database for the weather conditions in past years. The results will help you decide how hot, cold, wet, or windy it might be!

Date:

Astronomy

Oct. 27, 2012 Rise Set
Actual Time 7:36 AM CDT 6:19 PM CDT
Civil Twilight 7:08 AM CDT 6:46 PM CDT
Nautical Twilight 6:37 AM CDT 7:17 PM CDT
Astronomical Twilight 6:06 AM CDT 7:48 PM CDT
Moon 5:04 PM CDT (10/27) 5:32 AM CDT (10/27)
Length of Visible Light 11h 37m
Length of Day
10h 42m
Waxing Gibbous, 96% of the Moon is Illuminated
Oct 27
Waxing Gibbous
Oct 29
Full
Nov 6
Last Quarter
Nov 13
New
Nov 20
First Quarter

Hourly Weather History & Observations

Time (CDT) Temp. Windchill Dew Point Humidity Pressure Visibility Wind Dir Wind Speed Gust Speed Precip Events Conditions
12:55 AM 31.1 °F 24.5 °F 27.3 °F 86% 30.39 in 10.0 mi North 6.9 mph - N/A   Clear
1:55 AM 30.9 °F 23.5 °F 27.7 °F 88% 30.38 in 10.0 mi North 8.1 mph - N/A   Clear
2:55 AM 30.0 °F 22.4 °F 27.0 °F 88% 30.39 in 10.0 mi North 8.1 mph - N/A   Clear
3:55 AM 29.8 °F 23.0 °F 27.0 °F 89% 30.40 in 10.0 mi North 6.9 mph - N/A   Clear
4:55 AM 28.0 °F 22.8 °F 25.7 °F 91% 30.39 in 10.0 mi North 4.6 mph - N/A   Clear
5:55 AM 26.8 °F 20.2 °F 25.3 °F 94% 30.39 in 10.0 mi North 5.8 mph - N/A   Clear
6:55 AM 27.3 °F 22.0 °F 25.3 °F 92% 30.40 in 10.0 mi North 4.6 mph - N/A   Clear
7:55 AM 26.4 °F 19.8 °F 25.2 °F 95% 30.40 in 10.0 mi North 5.8 mph - N/A   Clear
8:55 AM 30.6 °F 23.1 °F 28.0 °F 90% 30.43 in 10.0 mi North 8.1 mph - N/A   Clear
9:55 AM 35.4 °F 28.4 °F 29.8 °F 80% 30.42 in 10.0 mi NNE 9.2 mph - N/A   Clear
10:55 AM 39.6 °F 33.0 °F 27.9 °F 63% 30.41 in 10.0 mi NNE 10.4 mph 19.6 mph N/A   Clear
11:55 AM 41.7 °F 36.1 °F 26.6 °F 55% 30.40 in 10.0 mi ENE 9.2 mph - N/A   Clear
12:55 PM 42.3 °F 38.6 °F 26.4 °F 54% 30.37 in 10.0 mi NNE 5.8 mph - N/A   Partly Cloudy
1:55 PM 43.7 °F 38.6 °F 26.8 °F 51% 30.33 in 10.0 mi NE 9.2 mph - N/A   Partly Cloudy
2:55 PM 43.2 °F 39.0 °F 26.8 °F 52% 30.31 in 10.0 mi Variable 6.9 mph - N/A   Partly Cloudy
3:55 PM 44.8 °F 40.4 °F 27.3 °F 50% 30.30 in 10.0 mi NE 8.1 mph - N/A   Clear
4:55 PM 45.3 °F 41.6 °F 27.9 °F 51% 30.28 in 10.0 mi NNE 6.9 mph - N/A   Clear
5:55 PM 42.8 °F 40.1 °F 28.4 °F 57% 30.28 in 10.0 mi NNE 4.6 mph - N/A   Clear
6:55 PM 39.0 °F 35.7 °F 27.7 °F 64% 30.29 in 10.0 mi NNE 4.6 mph - N/A   Clear
7:55 PM 34.9 °F 29.9 °F 27.5 °F 74% 30.30 in 10.0 mi North 5.8 mph - N/A   Clear
8:55 PM 32.2 °F 27.7 °F 27.0 °F 81% 30.31 in 10.0 mi NNE 4.6 mph - N/A   Clear
9:55 PM 35.8 °F 31.9 °F 27.7 °F 72% 30.31 in 10.0 mi NE 4.6 mph - N/A   Mostly Cloudy
10:55 PM 34.7 °F 31.8 °F 28.9 °F 79% 30.32 in 10.0 mi NE 3.5 mph - N/A   Overcast
11:24 PM 35.6 °F 32.8 °F 28.4 °F 75% 30.33 in 10.0 mi North 3.5 mph - N/A   Overcast
11:33 PM 35.6 °F - 28.4 °F 75% 30.33 in 10.0 mi Calm Calm - N/A   Overcast
11:55 PM 34.9 °F 32.0 °F 28.8 °F 78% 30.34 in 10.0 mi NNW 3.5 mph - 0.00 in   Overcast